CW3161 Weather Reports


Display with metric or nautical units.
time (UTC)temp
F
wind
direction
speed
MPH
gust
MPH
rain 1hr
in
rain 24hr
in
rain mn
in
humidity
%
barometer
mb
20180117150518 49 66 0.0 0.0 0.00 0.00 0.00 56 1023.8
20180117145015 48 66 0.0 0.0 0.00 0.00 0.00 58 1023.6
20180117143518 48 67 0.0 1.0 0.00 0.00 0.00 58 1023.4
20180117142014 48 67 0.0 0.0 0.00 0.00 0.00 59 1023.5
20180117140515 48 63 0.0 0.0 0.00 0.00 0.00 59 1023.6
20180117135013 49 63 0.0 0.0 0.00 0.00 0.00 57 1023.3
20180117133513 48 58 0.0 0.0 0.00 0.00 0.00 59 1023.4
20180117132011 48 58 0.0 0.0 0.00 0.00 0.00 59 1023.3
20180117130512 48 56 0.0 1.0 0.00 0.00 0.00 58 1023.3
20180117125011 49 51 0.0 0.0 0.00 0.00 0.00 56 1023.5
20180117123511 48 50 0.0 2.0 0.00 0.00 0.00 57 1023.4
20180117122009 48 13 0.0 1.0 0.00 0.00 0.00 58 1023.4
20180117120513 48 14 0.0 4.0 0.00 0.00 0.00 57 1023.2
20180117115012 49 70 0.0 0.0 0.00 0.00 0.00 56 1023.1
20180117113511 49 72 0.0 0.0 0.00 0.00 0.00 56 1023.1
20180117112009 49 72 0.0 0.0 0.00 0.00 0.00 57 1022.9
20180117110508 48 73 0.0 0.0 0.00 0.00 0.00 57 1022.8
20180117105008 48 73 0.0 0.0 0.00 0.00 0.00 58 1022.8
20180117103507 49 69 0.0 0.0 0.00 0.00 0.00 57 1022.8
20180117102003 49 280 0.0 0.0 0.00 0.00 0.00 57 1022.9
20180117100503 48 280 0.0 1.0 0.00 0.00 0.00 59 1023.0
20180117095003 48 267 0.0 0.0 0.00 0.00 0.00 59 1022.9
20180117093502 48 267 0.0 0.0 0.00 0.00 0.00 57 1023.1
20180117091959 49 267 0.0 0.0 0.00 0.00 0.00 57 1023.3
20180117090501 49 263 0.0 0.0 0.00 0.00 0.00 58 1023.4
20180117085000 48 263 0.0 0.0 0.00 0.00 0.00 59 1023.4
20180117083457 48 263 0.0 0.0 0.00 0.00 0.00 60 1023.5
20180117081955 49 263 0.0 0.0 0.00 0.00 0.00 60 1023.6
20180117080453 48 263 0.0 0.0 0.00 0.00 0.00 63 1023.7
20180117074953 49 263 0.0 0.0 0.00 0.00 0.00 61 1023.8
20180117073448 50 263 0.0 0.0 0.00 0.00 0.00 60 1023.7
20180117071947 49 264 0.0 0.0 0.00 0.00 0.00 61 1023.3
20180117070449 50 264 0.0 0.0 0.00 0.00 0.00 62 1023.1
20180117064947 50 264 0.0 3.0 0.00 0.00 0.00 61 1023.3
20180117063445 50 264 0.0 0.0 0.00 0.00 0.00 64 1023.5
20180117061945 50 264 0.0 0.0 0.00 0.00 0.00 65 1023.5
20180117060444 50 264 0.0 0.0 0.00 0.00 0.00 66 1023.1
20180117054944 50 264 0.0 0.0 0.00 0.00 0.00 66 1023.0
20180117053444 50 264 0.0 0.0 0.00 0.00 0.00 68 1022.9
20180117051943 50 264 0.0 1.0 0.00 0.00 0.00 70 1022.9
20180117050444 50 261 0.0 0.0 0.00 0.00 0.00 72 1022.8
20180117044942 49 261 0.0 0.0 0.00 0.00 0.00 73 1022.8
20180117043441 50 261 0.0 0.0 0.00 0.00 0.00 72 1022.9
20180117041940 50 261 0.0 0.0 0.00 0.00 0.00 72 1022.6
20180117040441 51 261 0.0 0.0 0.00 0.00 0.00 72 1022.4
20180117034939 51 261 0.0 0.0 0.00 0.00 0.00 71 1022.4
20180117033438 52 261 0.0 0.0 0.00 0.00 0.00 70 1022.3
20180117031938 52 261 0.0 0.0 0.00 0.00 0.00 71 1021.9
20180117030437 52 261 0.0 0.0 0.00 0.00 0.00 71 1021.7
20180117024937 52 261 0.0 0.0 0.00 0.00 0.00 75 1021.8
20180117023436 52 261 0.0 0.0 0.00 0.00 0.00 74 1021.8
20180117021935 53 261 0.0 0.0 0.00 0.00 0.00 75 1021.5
20180117020435 53 261 0.0 0.0 0.00 0.00 0.00 76 1021.5
20180117014935 53 261 0.0 0.0 0.00 0.00 0.00 77 1021.5
20180117013434 53 261 0.0 0.0 0.00 0.00 0.00 78 1021.6
20180117011932 53 261 0.0 0.0 0.00 0.00 0.00 77 1021.6
20180117010432 54 261 0.0 0.0 0.00 0.00 0.00 77 1021.2
20180117004931 55 261 0.0 0.0 0.00 0.00 0.00 76 1021.5
20180117003430 56 261 0.0 1.0 0.00 0.00 0.00 70 1021.7
20180117001929 56 261 0.0 0.0 0.00 0.00 0.00 68 1021.6
20180117000428 57 261 0.0 0.0 0.00 0.00 0.00 68 1021.6
20180116234927 58 261 0.0 0.0 0.00 0.00 0.00 65 1021.7
20180116233423 58 261 0.0 0.0 0.00 0.00 0.00 57 1021.6
20180116231925 58 261 0.0 3.0 0.00 0.00 0.00 55 1021.6
20180116230422 59 261 0.0 0.0 0.00 0.00 0.00 53 1021.6
20180116224921 58 261 1.0 6.0 0.00 0.00 0.00 52 1021.6
20180116223421 59 257 3.0 6.0 0.00 0.00 0.00 50 1021.6
20180116221923 58 257 3.0 6.0 0.00 0.00 0.00 47 1021.6
20180116220421 59 236 2.0 6.0 0.00 0.00 0.00 51 1021.6
20180116214920 60 246 3.0 7.0 0.00 0.00 0.00 49 1021.6
20180116213419 60 248 1.0 4.0 0.00 0.00 0.00 47 1021.4
20180116211921 60 247 0.0 4.0 0.00 0.00 0.00 49 1021.5
20180116210419 60 252 0.0 4.0 0.00 0.00 0.00 48 1021.8
20180116204919 60 261 0.0 0.0 0.00 0.00 0.00 47 1021.9
20180116203420 60 263 0.0 0.0 0.00 0.00 0.00 47 1022.2
20180116201917 60 257 2.0 6.0 0.00 0.00 0.00 48 1022.5
20180116200420 60 265 2.0 5.0 0.00 0.00 0.00 45 1022.6
20180116194915 61 223 0.0 4.0 0.00 0.00 0.00 44 1022.7
20180116193414 61 71 0.0 0.0 0.00 0.00 0.00 43 1022.9
20180116191913 61 71 0.0 0.0 0.00 0.00 0.00 42 1023.1
20180116190412 61 71 0.0 0.0 0.00 0.00 0.00 42 1023.1
20180116184912 61 71 0.0 0.0 0.00 0.00 0.00 41 1023.1
20180116183410 60 71 0.0 0.0 0.00 0.00 0.00 42 1023.2
20180116181912 59 71 0.0 4.0 0.00 0.00 0.00 41 1023.2
20180116180404 57 71 0.0 2.0 0.00 0.00 0.00 45 1023.0
20180116174902 56 72 0.0 2.0 0.00 0.00 0.00 46 1022.7
20180116173401 56 200 0.0 0.0 0.00 0.00 0.00 46 1023.0
20180116171856 55 200 0.0 0.0 0.00 0.00 0.00 43 1023.0
20180116170354 55 200 0.0 0.0 0.00 0.00 0.00 42 1023.2
20180116164852 54 200 0.0 2.0 0.00 0.00 0.00 46 1022.7
20180116163349 55 127 0.0 5.0 0.00 0.00 0.00 43 1021.6
20180116161846 54 90 1.0 6.0 0.00 0.00 0.00 43 1021.0
20180116160343 52 90 0.0 3.0 0.00 0.00 0.00 47 1020.6
20180116154843 52 80 0.0 4.0 0.00 0.00 0.00 47 1020.6
20180116153344 52 76 0.0 3.0 0.00 0.00 0.00 48 1020.9